Location: Corona
(40.7470°N, 73.8601°W)
Time: 23:47:53
(UTC+00:00)

Cosmos 2074 Rocket - Pass Details

Date: 22 September 2019
Orbit: 966 x 987 km, 82.9° (Epoch: 14 October)

Event Time Altitude Azimuth Distance (km) Brightness Sun altitude
Rises 23:33:42 0° 349° (N) 3,679 7.3 -8.5°
Reaches altitude 10° 23:36:14 10° 348° (NNW) 2,725 6.6 -9.0°
Maximum altitude 23:42:25 68° 267° (W) 1,040 4.4 -10.2°
Drops below altitude 10° 23:48:32 10° 185° (S) 2,698 6.3 -11.3°
Sets 23:51:02 0° 183° (S) 3,640 6.9 -11.8°
